TimeCDT,TemperatureF,Dew PointF,Humidity,Sea Level PressureIn,VisibilityMPH,Wind Direction,Wind SpeedMPH,Gust SpeedMPH,PrecipitationIn,Events,Conditions,WindDirDegrees,DateUTC
12:53 AM,75.0,66.9,76,30.06,10.0,Calm,Calm,-,N/A,,Clear,0,2013-07-19 05:53:00
1:53 AM,73.9,66.9,79,30.06,10.0,Calm,Calm,-,N/A,,Clear,0,2013-07-19 06:53:00
2:53 AM,73.0,66.9,81,30.05,10.0,South,3.5,-,N/A,,Clear,180,2013-07-19 07:53:00
3:53 AM,71.1,66.9,87,30.05,10.0,Calm,Calm,-,N/A,,Clear,0,2013-07-19 08:53:00
4:53 AM,71.1,68.0,90,30.04,10.0,Calm,Calm,-,N/A,,Clear,0,2013-07-19 09:53:00
5:53 AM,71.1,68.0,90,30.04,10.0,Calm,Calm,-,N/A,,Clear,0,2013-07-19 10:53:00
6:53 AM,70.0,66.9,90,30.06,10.0,Calm,Calm,-,N/A,,Clear,0,2013-07-19 11:53:00
7:53 AM,72.0,68.0,87,30.07,5.0,Calm,Calm,-,N/A,,Clear,0,2013-07-19 12:53:00
8:53 AM,75.0,70.0,84,30.08,10.0,Calm,Calm,-,N/A,,Clear,0,2013-07-19 13:53:00
9:53 AM,78.1,69.1,74,30.08,10.0,SSW,4.6,-,N/A,,Clear,200,2013-07-19 14:53:00
10:53 AM,81.0,66.9,62,30.06,10.0,South,6.9,-,N/A,,Clear,190,2013-07-19 15:53:00
11:53 AM,82.9,66.0,56,30.06,10.0,Variable,5.8,-,N/A,,Clear,0,2013-07-19 16:53:00
12:53 PM,86.0,64.9,49,30.03,10.0,SW,4.6,-,N/A,,Clear,220,2013-07-19 17:53:00
1:53 PM,88.0,62.1,42,30.01,10.0,Variable,3.5,-,N/A,,Clear,0,2013-07-19 18:53:00
2:53 PM,90.0,62.1,39,29.99,10.0,SSW,6.9,-,N/A,,Clear,210,2013-07-19 19:53:00
3:53 PM,90.0,60.1,37,29.97,10.0,SE,5.8,-,N/A,,Clear,140,2013-07-19 20:53:00
4:53 PM,90.0,60.1,37,29.94,10.0,Variable,3.5,-,N/A,,Clear,0,2013-07-19 21:53:00
5:53 PM,89.1,59.0,36,29.92,10.0,Calm,Calm,-,N/A,,Clear,0,2013-07-19 22:53:00
6:53 PM,91.0,60.1,35,29.91,10.0,SSE,5.8,-,N/A,,Clear,160,2013-07-19 23:53:00
7:53 PM,88.0,63.0,43,29.92,10.0,ESE,5.8,-,N/A,,Clear,120,2013-07-20 00:53:00
8:53 PM,84.0,66.0,55,29.93,10.0,East,3.5,-,N/A,,Clear,100,2013-07-20 01:53:00
9:53 PM,80.1,66.9,64,29.96,10.0,ESE,9.2,-,N/A,,Clear,120,2013-07-20 02:53:00
10:53 PM,77.0,66.9,71,29.99,10.0,ESE,4.6,-,N/A,,Clear,120,2013-07-20 03:53:00
11:53 PM,75.9,68.0,76,30.00,10.0,SE,5.8,-,N/A,,Clear,140,2013-07-20 04:53:00